IK1MHM-5 Weather Reports


time (UTC)temp
C
wind
direction
speed
KPH
gust
KPH
rain 1hr
cm
rain 24hr
cm
rain mn
cm
humidity
%
barometer
mb
20260506195609 -17 229 4.8 4.8 0.00 0.00 0.15 97 1025.0
20260506195108 -17 220 1.6 1.6 0.00 0.00 0.15 97 1024.9
20260506194609 -17 204 0.0 1.6 0.00 0.00 0.15 98 1024.7
20260506194108 -17 204 1.6 3.2 0.00 0.00 0.15 98 1024.9
20260506193609 -17 197 0.0 0.0 0.00 0.00 0.15 98 1024.7
20260506193109 -17 195 0.0 0.0 0.00 0.00 0.15 98 1024.5
20260506192608 -17 196 3.2 6.4 0.00 0.00 0.15 98 1024.7
20260506192108 -17 266 4.8 8.0 0.00 0.00 0.15 98 1024.5
20260506191608 -17 199 0.0 1.6 0.00 0.00 0.15 98 1024.5
20260506191108 -17 198 0.0 0.0 0.00 0.00 0.15 98 1024.2
20260506190609 -17 196 0.0 1.6 0.00 0.00 0.15 98 1024.5
20260506190109 -17 194 0.0 1.6 0.00 0.00 0.15 98 1024.2
20260506185608 -17 193 0.0 1.6 0.00 0.00 0.15 98 1024.0
20260506185108 -17 189 0.0 0.0 0.00 0.00 0.15 98 1024.2
20260506184609 -17 189 0.0 1.6 0.00 0.00 0.15 98 1024.0
20260506184109 -17 45 0.0 1.6 0.00 0.00 0.15 98 1024.0
20260506183609 -17 189 1.6 3.2 0.00 0.00 0.15 98 1024.0
20260506183109 -17 219 3.2 4.8 0.00 0.00 0.15 98 1024.0
20260506182608 -17 199 0.0 0.0 0.00 0.00 0.15 98 1023.8
20260506182109 -17 186 0.0 1.6 0.00 0.00 0.15 98 1023.8
20260506181609 -17 195 0.0 1.6 0.00 0.00 0.15 98 1023.7
20260506181108 -17 147 0.0 3.2 0.00 0.00 0.15 98 1023.7
20260506180608 -17 100 0.0 1.6 0.00 0.00 0.15 98 1023.6
20260506180109 -17 188 0.0 1.6 0.00 0.00 0.15 98 1023.7
20260506175609 -17 162 0.0 1.6 0.00 0.00 0.15 98 1023.7
20260506175109 -17 38 1.6 3.2 0.00 0.00 0.15 98 1023.6
20260506174608 -17 85 3.2 4.8 0.00 0.00 0.15 98 1023.5
20260506174109 -17 190 1.6 4.8 0.00 0.00 0.15 98 1023.3
20260506173609 -17 158 0.0 1.6 0.00 0.00 0.15 98 1023.5
20260506173109 -17 248 0.0 0.0 0.00 0.00 0.15 98 1023.5
20260506172609 -17 193 1.6 3.2 0.00 0.00 0.15 98 1023.5
20260506172108 -17 132 1.6 3.2 0.00 0.00 0.15 98 1023.2
20260506171608 -17 249 0.0 1.6 0.00 0.00 0.15 98 1023.3
20260506171109 -17 217 1.6 3.2 0.00 0.00 0.15 98 1023.2
20260506170609 -17 209 3.2 4.8 0.00 0.00 0.15 98 1023.2
20260506170109 -17 202 1.6 3.2 0.00 0.00 0.15 98 1023.2
20260506165609 -17 187 0.0 1.6 0.00 0.00 0.15 98 1023.2
20260506165108 -17 199 1.6 3.2 0.00 0.00 0.15 97 1023.2
20260506164608 -17 188 0.0 0.0 0.00 0.00 0.15 98 1023.2
20260506164108 -17 165 0.0 0.0 0.00 0.00 0.15 98 1023.2
20260506163608 -17 206 0.0 1.6 0.00 0.00 0.15 97 1023.3
20260506163108 -17 287 1.6 3.2 0.00 0.00 0.15 98 1023.5
20260506162608 -17 235 0.0 1.6 0.00 0.00 0.15 98 1023.3
20260506162109 -17 257 0.0 1.6 0.00 0.00 0.15 98 1023.2
20260506161608 -17 168 1.6 4.8 0.00 0.00 0.15 98 1023.2
20260506161108 -17 176 0.0 1.6 0.00 0.00 0.15 98 1023.2
20260506160609 -17 187 4.8 8.0 0.00 0.00 0.15 98 1023.2
20260506160108 -17 42 3.2 4.8 0.00 0.00 0.15 98 1023.2
20260506155609 -17 224 3.2 6.4 0.00 0.00 0.15 98 1023.3
20260506155108 -17 216 0.0 1.6 0.00 0.00 0.15 98 1023.2
20260506154609 -17 189 0.0 1.6 0.00 0.00 0.15 98 1023.1
20260506154109 -17 94 1.6 1.6 0.00 0.00 0.15 98 1023.2
20260506153608 -17 230 1.6 3.2 0.00 0.00 0.15 97 1023.2
20260506153110 -17 194 0.0 1.6 0.00 0.00 0.15 98 1023.2
20260506152608 -17 194 0.0 1.6 0.00 0.00 0.15 98 1023.2
20260506152110 -17 206 1.6 3.2 0.00 0.00 0.15 97 1023.1
20260506151608 -17 221 3.2 6.4 0.00 0.00 0.15 97 1023.0
20260506151108 -17 117 3.2 8.0 0.00 0.00 0.15 97 1023.1
20260506150610 -17 238 0.0 3.2 0.00 0.00 0.15 97 1023.2
20260506150108 -17 134 0.0 1.6 0.00 0.00 0.15 97 1023.2
20260506145608 -17 189 3.2 8.0 0.00 0.00 0.15 97 1023.2
20260506145109 -17 182 1.6 1.6 0.00 0.00 0.15 97 1023.2
20260506144608 -17 187 1.6 3.2 0.00 0.00 0.15 97 1023.0
20260506144109 -17 182 0.0 1.6 0.00 0.00 0.15 97 1023.3
20260506143609 -17 183 0.0 1.6 0.00 0.00 0.15 97 1023.2
20260506143108 -17 191 0.0 0.0 0.00 0.00 0.15 97 1023.1
20260506142609 -17 199 0.0 1.6 0.00 0.00 0.15 97 1023.1
20260506142108 -17 180 0.0 1.6 0.00 0.00 0.15 96 1022.8
20260506141609 -17 194 0.0 1.6 0.00 0.00 0.15 96 1023.2
20260506141109 -17 188 0.0 1.6 0.00 0.00 0.15 97 1023.1
20260506140609 -17 169 1.6 3.2 0.00 0.00 0.15 97 1023.2
20260506140109 -17 180 0.0 1.6 0.00 0.00 0.15 97 1023.1
20260506135609 -17 108 1.6 1.6 0.13 0.00 0.15 97 1023.0
20260506135109 -17 196 0.0 1.6 0.13 0.00 0.15 97 1023.0
20260506134609 -17 197 1.6 1.6 0.13 0.00 0.15 97 1023.1
20260506134109 -17 352 3.2 6.4 0.13 0.00 0.15 97 1023.1
20260506133609 -17 196 3.2 4.8 0.13 0.00 0.15 97 1023.3
20260506133109 -17 207 3.2 4.8 0.13 0.00 0.15 97 1023.2
20260506132608 -17 233 1.6 3.2 0.13 0.00 0.15 97 1023.3
20260506132109 -17 274 0.0 0.0 0.10 0.00 0.13 96 1023.3
20260506131608 -17 122 3.2 3.2 0.05 0.00 0.08 82 1023.5
20260506131108 -17 261 0.0 0.0 0.00 0.00 0.03 88 1023.5
20260506130608 -17 166 3.2 4.8 0.00 0.00 0.03 86 1023.5
20260506130109 -17 166 3.2 4.8 0.00 0.00 0.03 86 1023.5
20260506125609 -17 294 0.0 1.6 0.00 0.00 0.00 87 1023.2
20260506125108 -17 185 3.2 4.8 0.00 0.00 0.00 84 1023.1
20260506124609 -17 118 3.2 6.4 0.00 0.00 0.00 83 1023.2
20260506124108 -17 94 3.2 3.2 0.00 0.00 0.00 81 1023.2
20260506123609 -17 89 1.6 1.6 0.00 0.00 0.00 79 1023.3
20260506123109 -17 100 1.6 3.2 0.00 0.00 0.00 80 1023.2
20260506122609 -17 92 3.2 3.2 0.00 0.00 0.00 81 1023.2
20260506122109 -17 116 3.2 4.8 0.00 0.00 0.00 84 1023.2
20260506121609 -17 52 1.6 3.2 0.00 0.00 0.00 81 1023.2
20260506121109 -17 164 1.6 4.8 0.00 0.00 0.00 82 1023.0
20260506120609 -17 156 3.2 4.8 0.00 0.00 0.00 82 1023.1
20260506120109 -17 38 1.6 3.2 0.00 0.00 0.00 79 1023.2
20260506115608 -17 135 1.6 3.2 0.00 0.00 0.00 77 1023.2
20260506115108 -17 83 0.0 0.0 0.00 0.00 0.00 80 1023.2
20260506114609 -17 90 0.0 1.6 0.00 0.00 0.00 78 1023.2
20260506114108 -17 125 3.2 6.4 0.00 0.00 0.00 79 1023.1
20260506113609 -17 82 1.6 3.2 0.00 0.00 0.00 77 1023.2
20260506113109 -17 126 0.0 1.6 0.00 0.00 0.00 81 1023.2
20260506112609 -17 68 1.6 3.2 0.00 0.00 0.00 80 1023.3
20260506112109 -17 80 0.0 1.6 0.00 0.00 0.00 83 1023.1
20260506111609 -17 99 1.6 4.8 0.00 0.00 0.00 86 1023.3
20260506111109 -17 111 1.6 3.2 0.00 0.00 0.00 87 1023.2
20260506110609 -17 110 1.6 3.2 0.00 0.00 0.00 90 1023.2
20260506110108 -17 89 3.2 3.2 0.00 0.00 0.00 91 1023.2
20260506105609 -17 79 1.6 3.2 0.00 0.00 0.00 91 1023.3
20260506105109 -17 141 3.2 4.8 0.00 0.00 0.00 92 1023.3
20260506104608 -17 50 1.6 4.8 0.00 0.00 0.00 92 1023.3
20260506104108 -17 66 0.0 1.6 0.00 0.00 0.00 93 1023.2
20260506103608 -17 88 0.0 1.6 0.00 0.00 0.00 93 1023.2
20260506103108 -17 86 4.8 6.4 0.00 0.00 0.00 93 1023.2
20260506102608 -17 74 1.6 4.8 0.00 0.00 0.00 93 1023.1
20260506102109 -17 88 1.6 3.2 0.00 0.00 0.00 93 1023.2
20260506101610 -17 200 4.8 9.7 0.00 0.00 0.00 92 1023.1
20260506101108 -17 156 3.2 6.4 0.00 0.00 0.00 95 1023.1
20260506100609 -17 191 3.2 9.7 0.00 0.00 0.00 95 1023.0
20260506100108 -17 103 1.6 3.2 0.00 0.00 0.00 95 1022.8
20260506095608 -17 72 4.8 6.4 0.00 0.00 0.00 95 1022.7
20260506095109 -17 152 4.8 6.4 0.00 0.00 0.00 95 1022.6
20260506094609 -17 98 4.8 9.7 0.00 0.00 0.00 96 1022.7
20260506094109 -17 91 1.6 3.2 0.00 0.00 0.00 96 1022.7
20260506093609 -17 91 3.2 4.8 0.00 0.00 0.00 96 1022.5
20260506093108 -17 211 8.0 14.5 0.00 0.00 0.00 96 1022.6
20260506092608 -17 105 8.0 14.5 0.00 0.00 0.00 96 1022.2
20260506092109 -17 104 1.6 1.6 0.00 0.00 0.00 96 1022.2
20260506091609 -17 131 4.8 14.5 0.00 0.00 0.00 96 1022.3
20260506091108 -17 100 3.2 6.4 0.00 0.00 0.00 96 1022.3
20260506090608 -17 71 6.4 9.7 0.00 0.00 0.00 96 1022.3
20260506090109 -17 266 4.8 4.8 0.00 0.00 0.00 96 1022.2
20260506085608 -17 87 4.8 8.0 0.00 0.00 0.00 96 1022.2
20260506085109 -17 62 3.2 8.0 0.00 0.00 0.00 96 1022.2
20260506084608 -17 73 4.8 6.4 0.00 0.00 0.00 96 1022.1
20260506084109 -17 32 4.8 6.4 0.00 0.00 0.00 96 1022.2
20260506083609 -17 161 3.2 4.8 0.00 0.00 0.00 96 1022.0
20260506083108 -17 275 6.4 14.5 0.00 0.00 0.00 96 1022.0
20260506082608 -17 170 4.8 8.0 0.00 0.00 0.00 96 1021.8
20260506082109 -17 79 4.8 8.0 0.00 0.00 0.00 96 1021.7
20260506081609 -17 343 6.4 9.7 0.00 0.00 0.00 96 1021.7
20260506081109 -17 192 8.0 17.7 0.00 0.00 0.00 96 1021.5
20260506080608 -17 129 4.8 8.0 0.00 0.00 0.00 96 1021.7
20260506080109 -17 126 6.4 9.7 0.00 0.00 0.00 96 1021.6
20260506073108 -17 113 4.8 9.7 0.00 0.00 0.00 96 1010.2
20260506072610 -17 113 4.8 9.7 0.00 0.00 0.00 96 1010.2
20260506072108 -17 123 8.0 12.9 0.00 0.00 0.00 96 1010.2
20260506071608 -17 83 6.4 9.7 0.00 0.00 0.00 96 1010.1
20260506071109 -17 65 6.4 8.0 0.00 0.00 0.00 96 1010.1
20260506070610 -17 105 3.2 6.4 0.00 0.00 0.00 96 1010.1
20260506070108 -17 38 1.6 4.8 0.00 0.00 0.00 96 1010.2
20260506062110 -17 82 0.0 1.6 0.00 0.00 0.00 94 1010.1
20260506061608 -17 82 0.0 1.6 0.00 0.00 0.00 94 1010.0
20260506061108 -17 82 0.0 1.6 0.00 0.00 0.00 94 1010.1
20260506060609 -17 83 0.0 1.6 0.00 0.00 0.00 94 1010.0
20260506060109 -17 90 0.0 0.0 0.00 0.00 0.00 94 1010.2
20260506051108 -17 353 3.2 4.8 0.00 0.00 0.00 94 1010.0
20260506050610 -17 38 1.6 1.6 0.00 0.00 0.00 94 1010.0
20260506050111 -17 33 3.2 3.2 0.00 0.00 0.00 94 1010.2
20260506045108 -17 64 0.0 0.0 0.00 0.00 0.00 94 1010.5
20260506044609 -17 41 1.6 3.2 0.00 0.00 0.00 94 1010.5
20260506044109 -17 82 0.0 1.6 0.00 0.00 0.00 93 1010.3
20260506043609 -17 47 4.8 6.4 0.00 0.00 0.00 94 1010.1
20260506043108 -17 34 3.2 4.8 0.00 0.00 0.00 94 1010.3
20260506042609 -17 135 1.6 3.2 0.00 0.00 0.00 94 1010.7
20260506042108 -17 82 0.0 0.0 0.00 0.00 0.00 94 1010.2
20260506041609 -17 53 0.0 1.6 0.00 0.00 0.00 94 1010.2
20260506041109 -17 8 4.8 4.8 0.00 0.00 0.00 94 1010.3
20260506040609 -17 44 1.6 1.6 0.00 0.00 0.00 94 1010.6
20260506040108 -17 64 0.0 1.6 0.00 0.00 0.00 94 1010.7
20260506035609 -17 42 3.2 4.8 0.00 0.00 0.00 94 1010.7
20260506035109 -17 34 4.8 6.4 0.00 0.00 0.00 95 1010.8
20260506034609 -17 359 6.4 6.4 0.00 0.00 0.00 95 1010.7
20260506034108 -17 9 8.0 9.7 0.00 0.00 0.00 95 1010.7
20260506033609 -17 15 3.2 6.4 0.00 0.00 0.00 95 1010.8
20260506033108 -17 18 3.2 4.8 0.00 0.00 0.00 95 1010.7
20260506032609 -17 33 0.0 1.6 0.00 0.00 0.00 95 1010.7
20260506032108 -17 65 0.0 1.6 0.00 0.00 0.00 95 1011.0
20260506031608 -17 93 3.2 3.2 0.00 0.00 0.00 94 1010.7
20260506031109 -17 74 1.6 3.2 0.00 0.00 0.00 94 1010.6
20260506030609 -17 71 0.0 0.0 0.00 0.00 0.00 95 1010.7
20260506030109 -17 60 0.0 0.0 0.00 0.00 0.00 95 1011.2
20260506025609 -17 60 0.0 0.0 0.00 0.00 0.00 95 1011.2
20260506025108 -17 91 1.6 1.6 0.00 0.00 0.00 95 1011.2
20260506024609 -17 69 0.0 1.6 0.00 0.00 0.00 95 1011.0
20260506024108 -17 56 0.0 0.0 0.00 0.00 0.00 95 1010.5
20260506023610 -17 74 0.0 1.6 0.00 0.00 0.00 94 1010.0
20260506023108 -17 72 3.2 6.4 0.00 0.00 0.00 94 1010.5
20260506022609 -17 62 1.6 3.2 0.00 0.00 0.00 94 1010.3
20260506022108 -17 113 0.0 1.6 0.00 0.00 0.00 94 1010.7
20260506021609 -17 60 0.0 1.6 0.00 0.00 0.00 94 1010.7
20260506021109 -17 74 0.0 0.0 0.00 0.00 0.00 94 1010.6
20260506020610 -17 51 0.0 1.6 0.00 0.00 0.00 93 1011.1
20260506020109 -17 51 0.0 1.6 0.00 0.00 0.00 93 1011.0
20260506015609 -17 51 0.0 1.6 0.00 0.00 0.00 93 1011.1
20260506015109 -17 50 3.2 4.8 0.00 0.00 0.00 92 1011.2
20260506014609 -17 50 3.2 4.8 0.00 0.00 0.00 92 1011.2
20260506014109 -17 1 1.6 3.2 0.00 0.00 0.00 92 1011.0
20260506013608 -17 357 1.6 3.2 0.00 0.00 0.00 92 1011.0
20260506013111 -17 357 1.6 3.2 0.00 0.00 0.00 92 1011.3
20260506012609 -17 357 1.6 3.2 0.00 0.00 0.00 92 1011.7
20260506012110 -17 357 1.6 3.2 0.00 0.00 0.00 92 1011.3
20260506011609 -17 32 3.2 4.8 0.00 0.00 0.00 92 1011.7
20260506011109 -17 32 3.2 4.8 0.00 0.00 0.00 92 1011.6
20260506010609 -17 46 1.6 3.2 0.00 0.00 0.00 92 1011.7
20260506010109 -17 59 0.0 1.6 0.00 0.00 0.00 93 1011.6
20260506005609 -17 6 1.6 3.2 0.00 0.00 0.00 93 1011.7
20260506005110 -17 39 1.6 1.6 0.00 0.00 0.00 93 1011.8
20260506004609 -17 64 0.0 1.6 0.00 0.00 0.00 93 1011.8
20260506004108 -17 68 0.0 0.0 0.00 0.00 0.00 93 1012.1
20260506003609 -17 71 0.0 1.6 0.00 0.00 0.00 93 1012.2
20260506003109 -17 19 3.2 3.2 0.00 0.00 0.00 93 1012.2
20260506002608 -17 357 3.2 3.2 0.00 0.00 0.00 92 1012.2
20260506002108 -17 75 0.0 1.6 0.00 0.00 0.00 92 1012.3
20260506001608 -17 330 4.8 6.4 0.00 0.00 0.00 87 1012.2
20260506001109 -17 330 4.8 6.4 0.00 0.00 0.00 87 1012.5
20260506000608 -17 330 4.8 6.4 0.00 0.00 0.00 87 1012.3
20260506000108 -17 330 4.8 6.4 0.00 0.00 0.00 87 1012.2
20260505235608 -17 330 4.8 6.4 0.00 0.00 0.00 87 1012.1
20260505235109 -17 4 3.2 4.8 0.00 0.00 0.00 86 1012.1
20260505234609 -17 58 0.0 1.6 0.00 0.00 0.00 86 1012.3
20260505234108 -17 62 0.0 0.0 0.00 0.00 0.00 86 1012.6
20260505233609 -17 57 0.0 1.6 0.00 0.00 0.00 86 1012.6
20260505233109 -17 80 0.0 0.0 0.00 0.00 0.00 86 1012.7
20260505232609 -17 4 3.2 3.2 0.00 0.00 0.00 86 1012.8
20260505232108 -17 27 0.0 1.6 0.00 0.00 0.00 86 1012.7
20260505231608 -17 28 3.2 4.8 0.00 0.00 0.00 87 1013.0
20260505231109 -17 52 1.6 4.8 0.00 0.00 0.00 87 1012.8
20260505230608 -17 22 4.8 4.8 0.00 0.00 0.00 88 1013.0
20260505230109 -17 31 3.2 4.8 0.00 0.00 0.00 88 1013.5
20260505225609 -17 2 4.8 6.4 0.00 0.00 0.00 89 1013.1
20260505225109 -17 33 4.8 4.8 0.00 0.00 0.00 88 1013.2
20260505224608 -17 35 3.2 4.8 0.00 0.00 0.00 88 1013.3
20260505224109 -17 58 1.6 3.2 0.00 0.00 0.00 87 1013.3
20260505223609 -17 49 3.2 3.2 0.00 0.00 0.00 88 1013.6
20260505223110 -17 63 0.0 1.6 0.00 0.00 0.00 88 1013.7
20260505222609 -17 37 3.2 3.2 0.00 0.00 0.00 89 1013.8
20260505222109 -17 22 0.0 3.2 0.00 0.00 0.00 90 1013.6
20260505221608 -17 13 3.2 4.8 0.00 0.00 0.00 90 1013.7
20260505221108 -17 59 1.6 3.2 0.00 0.00 0.00 90 1013.7
20260505220608 -17 24 3.2 4.8 0.00 0.00 0.00 91 1013.6
20260505220109 -17 14 3.2 4.8 0.00 0.00 0.00 91 1013.5
20260505215609 -17 32 3.2 3.2 0.00 0.00 0.10 91 1013.6
20260505215108 -17 46 1.6 3.2 0.00 0.00 0.10 91 1013.7
20260505214608 -17 38 1.6 3.2 0.00 0.00 0.10 91 1013.8
20260505214108 -17 349 3.2 3.2 0.00 0.00 0.10 91 1013.8
20260505213608 -17 61 1.6 3.2 0.00 0.00 0.10 91 1013.8
20260505213109 -17 50 1.6 4.8 0.00 0.00 0.10 91 1014.0
20260505212608 -17 42 3.2 4.8 0.00 0.00 0.10 91 1013.8
20260505212108 -17 41 3.2 6.4 0.00 0.00 0.10 91 1013.8
20260505211609 -17 64 3.2 3.2 0.00 0.00 0.10 91 1013.7
20260505211109 -17 66 1.6 3.2 0.00 0.00 0.10 91 1013.8
20260505210609 -17 40 1.6 3.2 0.00 0.00 0.10 91 1013.8
20260505210108 -17 40 1.6 3.2 0.00 0.00 0.10 91 1014.1
20260505205608 -17 52 0.0 1.6 0.00 0.00 0.10 90 1014.0
20260505205110 -17 40 1.6 1.6 0.00 0.00 0.10 90 1014.2
20260505204609 -17 37 1.6 1.6 0.00 0.00 0.10 90 1014.2
20260505204108 -17 42 0.0 1.6 0.00 0.00 0.10 90 1014.3
20260505203609 -17 34 0.0 1.6 0.00 0.00 0.10 91 1014.3
20260505203108 -17 25 3.2 4.8 0.00 0.00 0.10 90 1014.5
20260505202608 -17 51 1.6 1.6 0.00 0.00 0.10 90 1014.3
20260505202109 -17 5 1.6 3.2 0.00 0.00 0.10 90 1014.5
20260505201609 -17 60 0.0 1.6 0.00 0.00 0.10 90 1014.6
20260505201109 -17 66 0.0 0.0 0.00 0.00 0.10 89 1014.6
20260505200609 -17 73 0.0 0.0 0.00 0.00 0.10 89 1014.6
20260505200108 -17 70 0.0 1.6 0.00 0.00 0.10 89 1014.5